Location: Newark
(46.7000°N, 60.6000°W)
Time: 13:43:16
(UTC+00:00)

A-11 Canister half - Pass Details

Date: 05 November 2020
Orbit: 1525 x 1684 km, 47.3° (Epoch: 01 December)

Event Time Altitude Azimuth Distance (km) Brightness Sun altitude
Rises 15:16:17 0° 210° (SSW) 4,859 12.4 27.0°
Reaches altitude 10° 15:19:42 10° 203° (SSW) 3,853 12.2 27.1°
Maximum altitude 15:28:30 39° 139° (SE) 2,222 11.1 27.2°
Drops below altitude 10° 15:37:02 10° 75° (ENE) 3,753 11.0 27.3°
Sets 15:40:18 0° 68° (ENE) 4,720 11.4 27.3°
